Date,TemperatureHighF,TemperatureAvgF,TemperatureLowF,DewpointHighF,DewpointAvgF,DewpointLowF,HumidityHigh,HumidityAvg,HumidityLow,PressureMaxIn,PressureMinIn,WindSpeedMaxMPH,WindSpeedAvgMPH,GustSpeedMaxMPH,PrecipitationSumIn
2013-3-1,40.1,36.6,33.9,33.2,30.9,27.6,92,80,70,30.07,30.00,18,6,18,0.00
2013-3-2,36.2,33.6,30.7,31.8,30.1,25.9,95,87,76,30.12,30.01,20,7,20,0.03
2013-3-3,42.4,33.5,28.6,26.5,22.6,17.4,85,66,37,30.16,30.09,20,6,20,0.01
2013-3-4,55.7,44.2,28.2,40.0,28.6,20.5,89,56,36,30.18,29.93,19,4,19,0.00
2013-3-5,61.7,50.1,36.7,57.4,45.1,29.6,93,83,62,30.00,29.65,37,10,37,0.40
2013-3-6,42.1,36.0,30.6,31.3,26.8,21.0,86,69,57,30.27,29.98,34,9,34,0.00
2013-3-7,52.4,39.0,27.4,34.7,30.5,24.7,92,73,48,30.34,30.24,13,4,13,0.00
2013-3-8,62.2,44.9,27.9,35.5,29.3,23.6,93,60,26,30.36,30.22,16,3,16,0.00
2013-3-9,63.4,51.2,35.6,38.8,33.8,28.1,87,53,38,30.27,30.06,18,4,18,0.00
2013-3-10,72.3,61.9,51.8,48.4,40.4,34.2,58,46,35,30.10,29.90,25,7,25,0.00
2013-3-11,63.0,59.3,54.4,53.3,49.3,47.5,95,70,58,29.92,29.77,26,8,26,0.24
2013-3-12,54.9,47.5,33.5,37.3,34.8,30.6,90,62,46,30.15,29.93,18,6,20,0.20
2013-3-13,50.1,43.9,35.0,32.8,26.8,21.9,79,52,37,30.36,30.12,27,8,27,0.00
2013-3-14,55.2,41.3,28.6,28.8,20.9,12.1,74,48,22,30.42,30.24,16,4,16,0.00
2013-3-15,74.0,58.0,37.5,48.0,37.1,21.2,70,46,35,30.24,29.92,23,6,23,0.00
2013-3-16,74.3,63.5,53.2,48.8,45.2,42.3,71,53,35,29.97,29.84,23,6,24,0.00
2013-3-17,67.8,61.1,54.0,55.8,51.5,45.7,91,72,54,29.97,29.84,18,5,18,0.00
2013-3-18,70.3,59.5,53.7,63.0,56.2,51.7,95,89,76,29.87,29.69,43,7,44,0.36
2013-3-19,60.7,50.5,38.2,52.5,35.7,24.6,94,61,32,30.11,29.87,21,6,21,0.00
2013-3-20,56.5,46.8,38.5,30.4,25.8,13.9,69,45,26,30.15,29.96,28,5,28,0.00
2013-3-21,46.0,37.6,27.8,30.2,20.6,11.5,81,52,29,30.08,29.94,16,4,18,0.00
2013-3-22,46.7,43.5,37.0,40.4,31.5,22.7,91,63,51,30.06,29.95,12,3,12,0.14
2013-3-23,55.2,48.6,42.7,51.4,46.6,40.3,97,93,86,29.97,29.68,18,6,20,1.27
2013-3-24,61.4,51.2,39.0,55.1,46.3,28.7,98,84,60,29.77,29.45,39,9,39,0.90
2013-3-25,39.4,35.9,33.4,29.3,26.4,23.5,80,69,55,30.14,29.76,31,12,31,0.00
2013-3-26,39.9,35.7,32.6,30.3,28.0,26.1,83,73,62,30.35,30.12,24,7,24,0.00
2013-3-27,51.9,41.0,29.3,31.7,28.6,24.9,87,63,39,30.40,30.28,19,4,19,0.00
2013-3-28,61.2,46.8,31.4,36.7,32.1,27.4,94,61,32,30.36,30.25,16,2,18,0.00
2013-3-29,66.5,53.1,35.6,42.8,36.8,33.0,91,57,31,30.30,30.13,18,3,18,0.00
2013-3-30,69.0,56.0,47.2,56.1,48.3,39.0,98,77,50,30.16,29.94,23,2,23,0.63
2013-3-31,67.5,59.7,55.7,60.4,56.7,54.7,98,91,68,29.94,29.82,21,4,22,0.22